| time (UTC) | temp F | wind direction | speed MPH | gust MPH | rain 1hr in | rain 24hr in | rain mn in | humidity % | barometer mb |
| 20260506210033 | 75 | 228 | 4.0 | 17.0 | 0.00 | 0.00 | 0.00 | 79 | 1015.1 |
| 20260506204534 | 76 | 217 | 6.0 | 13.0 | 0.00 | 0.00 | 0.00 | 78 | 1015.2 |
| 20260506203043 | 75 | 212 | 5.0 | 15.0 | 0.00 | 0.00 | 0.00 | 78 | 1015.3 |
| 20260506201528 | 76 | 228 | 4.0 | 12.0 | 0.00 | 0.00 | 0.00 | 78 | 1015.4 |
| 20260506200031 | 76 | 217 | 6.0 | 15.0 | 0.00 | 0.00 | 0.00 | 78 | 1015.4 |
| 20260506194526 | 76 | 230 | 7.0 | 12.0 | 0.00 | 0.00 | 0.00 | 79 | 1015.6 |
| 20260506193025 | 76 | 239 | 6.0 | 16.0 | 0.00 | 0.00 | 0.00 | 78 | 1015.5 |
| 20260506191524 | 76 | 186 | 6.0 | 17.0 | 0.00 | 0.00 | 0.00 | 78 | 1015.5 |
| 20260506190032 | 76 | 229 | 3.0 | 14.0 | 0.00 | 0.00 | 0.00 | 78 | 1015.8 |
| 20260506184519 | 76 | 209 | 7.0 | 17.0 | 0.00 | 0.00 | 0.00 | 77 | 1016.1 |
| 20260506183017 | 76 | 236 | 7.0 | 16.0 | 0.00 | 0.00 | 0.00 | 77 | 1016.5 |
| 20260506181515 | 76 | 207 | 5.0 | 18.0 | 0.00 | 0.00 | 0.00 | 77 | 1016.7 |
| 20260506180015 | 77 | 228 | 7.0 | 21.0 | 0.00 | 0.00 | 0.00 | 77 | 1016.8 |
| 20260506174515 | 77 | 229 | 4.0 | 14.0 | 0.00 | 0.00 | 0.00 | 77 | 1016.8 |
| 20260506173011 | 77 | 202 | 5.0 | 11.0 | 0.00 | 0.00 | 0.00 | 77 | 1016.9 |
| 20260506171515 | 76 | 229 | 5.0 | 14.0 | 0.00 | 0.00 | 0.00 | 78 | 1017.1 |
| 20260506170009 | 75 | 223 | 5.0 | 16.0 | 0.00 | 0.00 | 0.00 | 78 | 1017.2 |
| 20260506164505 | 78 | 217 | 3.0 | 15.0 | 0.00 | 0.00 | 0.00 | 76 | 1017.6 |
| 20260506163004 | 77 | 227 | 5.0 | 15.0 | 0.00 | 0.00 | 0.00 | 75 | 1017.7 |
| 20260506161504 | 75 | 254 | 6.0 | 19.0 | 0.00 | 0.00 | 0.00 | 76 | 1017.8 |
| 20260506160001 | 76 | 211 | 3.0 | 15.0 | 0.00 | 0.00 | 0.00 | 76 | 1017.6 |
| 20260506154600 | 76 | 194 | 5.0 | 16.0 | 0.00 | 0.00 | 0.00 | 75 | 1017.6 |
| 20260506153129 | 76 | 232 | 4.0 | 14.0 | 0.00 | 0.00 | 0.00 | 74 | 1017.8 |
| 20260506151558 | 76 | 203 | 7.0 | 19.0 | 0.00 | 0.00 | 0.00 | 74 | 1017.8 |
| 20260506150057 | 75 | 263 | 4.0 | 15.0 | 0.00 | 0.00 | 0.00 | 75 | 1018.0 |
| 20260506144556 | 75 | 219 | 4.0 | 18.0 | 0.00 | 0.00 | 0.00 | 75 | 1017.9 |
| 20260506143056 | 75 | 225 | 6.0 | 15.0 | 0.00 | 0.00 | 0.00 | 75 | 1017.9 |
| 20260506141554 | 75 | 202 | 3.0 | 19.0 | 0.00 | 0.00 | 0.00 | 76 | 1017.7 |
| 20260506140054 | 75 | 246 | 3.0 | 13.0 | 0.00 | 0.00 | 0.00 | 76 | 1017.7 |
| 20260506134550 | 74 | 198 | 6.0 | 11.0 | 0.00 | 0.00 | 0.00 | 76 | 1017.7 |
| 20260506133050 | 74 | 240 | 6.0 | 13.0 | 0.00 | 0.00 | 0.00 | 76 | 1017.7 |
| 20260506131548 | 73 | 202 | 4.0 | 13.0 | 0.00 | 0.00 | 0.00 | 77 | 1017.7 |
| 20260506130048 | 73 | 196 | 4.0 | 12.0 | 0.00 | 0.00 | 0.00 | 76 | 1017.7 |
| 20260506124546 | 72 | 244 | 4.0 | 10.0 | 0.00 | 0.00 | 0.00 | 77 | 1017.9 |
| 20260506123043 | 71 | 223 | 2.0 | 8.0 | 0.00 | 0.00 | 0.00 | 78 | 1017.8 |
| 20260506121547 | 71 | 171 | 2.0 | 9.0 | 0.00 | 0.00 | 0.00 | 77 | 1017.9 |
| 20260506120040 | 70 | 208 | 3.0 | 9.0 | 0.00 | 0.00 | 0.00 | 77 | 1018.1 |
| 20260506114534 | 69 | 197 | 1.0 | 7.0 | 0.00 | 0.00 | 0.00 | 77 | 1018.1 |
| 20260506113031 | 69 | 192 | 3.0 | 8.0 | 0.00 | 0.00 | 0.00 | 77 | 1018.0 |
| 20260506111534 | 68 | 200 | 3.0 | 7.0 | 0.00 | 0.00 | 0.00 | 79 | 1017.9 |
| 20260506110030 | 67 | 216 | 2.0 | 8.0 | 0.00 | 0.00 | 0.00 | 81 | 1017.6 |
| 20260506104529 | 66 | 173 | 1.0 | 4.0 | 0.00 | 0.00 | 0.00 | 81 | 1017.8 |
| 20260506103031 | 66 | 198 | 1.0 | 6.0 | 0.00 | 0.00 | 0.00 | 81 | 1017.7 |
| 20260506101528 | 66 | 209 | 1.0 | 4.0 | 0.00 | 0.00 | 0.00 | 81 | 1017.8 |
| 20260506100030 | 66 | 200 | 2.0 | 6.0 | 0.00 | 0.00 | 0.00 | 81 | 1017.6 |
| 20260506094525 | 66 | 181 | 1.0 | 6.0 | 0.00 | 0.00 | 0.00 | 80 | 1017.6 |
| 20260506093023 | 66 | 205 | 1.0 | 5.0 | 0.00 | 0.00 | 0.00 | 79 | 1017.8 |
| 20260506091524 | 66 | 209 | 2.0 | 6.0 | 0.00 | 0.00 | 0.00 | 78 | 1017.8 |
| 20260506090024 | 66 | 184 | 1.0 | 6.0 | 0.00 | 0.00 | 0.00 | 78 | 1017.9 |
| 20260506084533 | 66 | 208 | 1.0 | 6.0 | 0.00 | 0.00 | 0.00 | 77 | 1017.8 |
| 20260506083024 | 66 | 173 | 1.0 | 8.0 | 0.00 | 0.00 | 0.00 | 76 | 1017.7 |
| 20260506081519 | 67 | 220 | 1.0 | 7.0 | 0.00 | 0.00 | 0.00 | 76 | 1017.8 |
| 20260506073016 | 67 | 217 | 3.0 | 8.0 | 0.00 | 0.00 | 0.00 | 77 | 1017.7 |
| 20260506071519 | 67 | 234 | 1.0 | 5.0 | 0.00 | 0.00 | 0.00 | 76 | 1017.6 |
| 20260506061510 | 68 | 244 | 2.0 | 12.0 | 0.00 | 0.00 | 0.00 | 77 | 1018.2 |
| 20260506050118 | 68 | 169 | 3.0 | 12.0 | 0.00 | 0.00 | 0.00 | 76 | 1018.6 |
| 20260506044609 | 68 | 190 | 5.0 | 11.0 | 0.00 | 0.00 | 0.00 | 75 | 1018.8 |
| 20260506043058 | 68 | 236 | 5.0 | 12.0 | 0.00 | 0.00 | 0.00 | 75 | 1018.9 |
| 20260506041601 | 68 | 221 | 1.0 | 14.0 | 0.00 | 0.00 | 0.00 | 75 | 1019.1 |
| 20260506040050 | 68 | 203 | 2.0 | 14.0 | 0.00 | 0.00 | 0.00 | 74 | 1019.2 |
| 20260506034552 | 68 | 194 | 3.0 | 12.0 | 0.00 | 0.00 | 0.00 | 74 | 1019.1 |
| 20260506033048 | 68 | 195 | 4.0 | 14.0 | 0.00 | 0.00 | 0.00 | 75 | 1019.1 |
| 20260506031548 | 68 | 162 | 4.0 | 11.0 | 0.00 | 0.00 | 0.00 | 75 | 1019.1 |
| 20260506030047 | 67 | 184 | 5.0 | 12.0 | 0.00 | 0.00 | 0.00 | 75 | 1019.1 |
| 20260506024546 | 67 | 165 | 4.0 | 15.0 | 0.00 | 0.00 | 0.00 | 75 | 1019.1 |
| 20260506023058 | 68 | 176 | 1.0 | 12.0 | 0.00 | 0.00 | 0.00 | 75 | 1019.3 |
| 20260506021545 | 68 | 189 | 3.0 | 12.0 | 0.00 | 0.00 | 0.00 | 75 | 1019.4 |
| 20260506020051 | 68 | 142 | 5.0 | 15.0 | 0.00 | 0.00 | 0.00 | 74 | 1019.4 |
| 20260506014544 | 68 | 149 | 4.0 | 12.0 | 0.00 | 0.00 | 0.00 | 75 | 1019.5 |
| 20260506013052 | 68 | 182 | 2.0 | 14.0 | 0.00 | 0.00 | 0.00 | 75 | 1019.4 |
| 20260506011546 | 68 | 201 | 5.0 | 14.0 | 0.00 | 0.00 | 0.00 | 73 | 1019.4 |
| 20260506010042 | 68 | 201 | 5.0 | 12.0 | 0.00 | 0.00 | 0.00 | 75 | 1019.3 |
| 20260506004540 | 68 | 205 | 4.0 | 11.0 | 0.00 | 0.00 | 0.00 | 75 | 1019.1 |
| 20260506003041 | 68 | 172 | 2.0 | 15.0 | 0.00 | 0.00 | 0.00 | 74 | 1019.0 |
| 20260506001539 | 68 | 194 | 5.0 | 14.0 | 0.00 | 0.00 | 0.00 | 73 | 1019.1 |
| 20260506000038 | 68 | 226 | 4.0 | 16.0 | 0.00 | 0.00 | 0.00 | 73 | 1019.1 |
| 20260505234538 | 68 | 176 | 4.0 | 10.0 | 0.00 | 0.00 | 0.00 | 74 | 1018.8 |
| 20260505233037 | 69 | 194 | 3.0 | 16.0 | 0.00 | 0.00 | 0.00 | 73 | 1018.6 |
| 20260505231537 | 69 | 166 | 2.0 | 13.0 | 0.00 | 0.00 | 0.00 | 73 | 1018.6 |
| 20260505230056 | 69 | 225 | 3.0 | 13.0 | 0.00 | 0.00 | 0.00 | 75 | 1018.5 |
| 20260505224536 | 69 | 209 | 6.0 | 18.0 | 0.00 | 0.00 | 0.00 | 74 | 1018.4 |
| 20260505223041 | 69 | 234 | 2.0 | 12.0 | 0.00 | 0.00 | 0.00 | 75 | 1018.4 |
| 20260505221543 | 70 | 175 | 7.0 | 14.0 | 0.00 | 0.00 | 0.00 | 73 | 1018.6 |
| 20260505220049 | 72 | 167 | 3.0 | 16.0 | 0.00 | 0.00 | 0.00 | 73 | 1018.4 |
| 20260505214536 | 72 | 175 | 5.0 | 16.0 | 0.00 | 0.00 | 0.00 | 73 | 1018.3 |
| 20260505213035 | 73 | 173 | 5.0 | 17.0 | 0.00 | 0.00 | 0.00 | 72 | 1018.4 |
| 20260505211533 | 73 | 182 | 6.0 | 17.0 | 0.00 | 0.00 | 0.00 | 72 | 1018.4 |